This is the latest recevied weather packets stored in our database for station/object KC3BAN-3. If no packets are shown the sender has not sent any weather packets the latest 1 day(s).
| Time | Temp. | Humidity | Pressure | Rain* | Wind** | Luminosity | Snow |
|---|---|---|---|---|---|---|---|
| 1778030167 | 20° C | 78% | 1017.3 hPa | 0 mm | 2.24 m/s, 296° | - | - |
| 1778029997 | 20° C | 78% | 1017.4 hPa | 0 mm | 2.24 m/s, 208° | - | - |
| 1778029700 | 20° C | 77% | 1017.2 hPa | 0 mm | 2.68 m/s, 188° | - | - |
| 1778029397 | 20° C | 77% | 1017.1 hPa | 0 mm | 2.68 m/s, 248° | - | - |
| 1778028973 | 20.56° C | 77% | 1017.2 hPa | 0 mm | 1.79 m/s, 160° | - | - |
| 1778028670 | 20.56° C | 76% | 1017.1 hPa | 0 mm | 2.24 m/s, 141° | - | - |
| 1778028370 | 20.56° C | 75% | 1017.3 hPa | 0 mm | 2.24 m/s, 194° | - | - |
| 1778028063 | 20.56° C | 75% | 1017.1 hPa | 0 mm | 2.24 m/s, 174° | - | - |
| 1778027757 | 20.56° C | 74% | 1016.9 hPa | 0 mm | 2.24 m/s, 183° | - | - |
| 1778027580 | 20.56° C | 73% | 1016.9 hPa | 0 mm | 2.68 m/s, 216° | - | - |
| 1778027142 | 20.56° C | 73% | 1016.8 hPa | 0 mm | 2.68 m/s, 108° | - | - |
| 1778026838 | 20.56° C | 73% | 1016.8 hPa | 0 mm | 2.68 m/s, 257° | - | - |
| 1778026535 | 20.56° C | 72% | 1016.8 hPa | 0 mm | 2.24 m/s, 102° | - | - |
| 1778026235 | 20.56° C | 72% | 1016.8 hPa | 0 mm | 2.24 m/s, 233° | - | - |
| 1778025935 | 20.56° C | 72% | 1016.7 hPa | 0 mm | 2.24 m/s, 174° | - | - |
| 1778025635 | 20.56° C | 72% | 1016.6 hPa | 0 mm | 2.24 m/s, 176° | - | - |
| 1778025334 | 21.11° C | 71% | 1016.7 hPa | 0 mm | 2.24 m/s, 175° | - | - |
| 1778025034 | 21.11° C | 71% | 1016.7 hPa | 0 mm | 2.24 m/s, 219° | - | - |
| 1778024736 | 21.11° C | 70% | 1016.9 hPa | 0 mm | 2.68 m/s, 316° | - | - |
| 1778024434 | 21.11° C | 70% | 1016.8 hPa | 0 mm | 2.68 m/s, 269° | - | - |
| 1778024133 | 21.67° C | 69% | 1016.6 hPa | 0 mm | 2.68 m/s, 172° | - | - |
| 1778023834 | 21.67° C | 68% | 1016.6 hPa | 0 mm | 2.68 m/s, 254° | - | - |
| 1778023534 | 21.67° C | 67% | 1016.5 hPa | 0 mm | 2.24 m/s, 300° | - | - |
| 1778023235 | 22.22° C | 67% | 1016.6 hPa | 0 mm | 2.68 m/s, 131° | - | - |
| 1778022934 | 22.22° C | 67% | 1016.3 hPa | 0 mm | 3.13 m/s, 181° | - | - |
* Rain latest hour (hover to see other rain measurements)
** Current wind speed in m/s (hover to see current wind gust speed)